Temperature
25 23 23 24 24 25 24 24 24 24 24 23 22 22 21 21 21 20 20 20 20 20 20 20 20 19 19 19 19 19 19 18 18 18 18 17 17 17 17 17 17 17 17 17
24 24 25 25 25 24 24 24 24 24 24 23 22 21 21 21 21 21 20 20 20 20 19 19 19 19 19 19 19 19 19 18 18 18 17 17 17 17 17 17 17 17 17 17
25 25 26 26 25 25 24 24 24 24 23 22 22 21 21 21 21 21 21 21 20 20 20 20 20 20 19 19 19 19 19 18 18 18 18 17 17 17 17 17 17 17 17 16
25 25 26 26 25 25 24 25 25 24 22 21 22 21 21 20 20 20 20 20 20 20 20 20 20 20 20 19 19 19 19 18 18 18 17 17 17 17 17 17 17 17 17 16
25 26 26 26 26 26 25 24 23 23 21 20 20 20 20 20 20 20 20 20 21 21 21 21 21 20 20 20 19 19 18 18 18 17 17 17 17 17 17 17 17 17 17 16
25 26 26 26 26 26 24 23 22 20 20 21 21 20 20 19 20 20 20 21 21 21 21 21 21 20 20 20 19 19 18 18 18 17 17 17 17 17 17 17 17 17 17 16
25 26 26 26 26 25 24 22 21 21 20 20 20 20 20 21 21 20 20 21 21 21 21 21 20 20 20 20 19 19 18 18 18 18 17 17 17 17 17 17 17 16 16 16
24 24 25 26 26 24 23 22 22 22 21 20 20 20 20 21 21 21 21 21 21 21 21 21 21 21 20 20 19 19 19 18 18 18 17 17 17 17 17 16 16 16 16 16
23 24 25 25 25 24 23 21 21 19 20 20 20 20 20 21 20 20 20 20 21 21 21 21 21 20 20 20 20 19 19 18 18 18 17 17 17 17 17 16 16 16 16 16
23 24 25 25 25 24 23 20 19 19 20 21 21 20 20 21 20 20 19 20 20 20 21 21 21 20 20 20 19 19 19 18 18 18 17 17 17 17 16 16 16 16 16 16
23 23 24 24 24 24 22 21 18 17 18 19 20 20 21 20 20 19 19 20 20 20 21 21 20 20 20 20 19 19 19 18 18 17 17 17 17 16 16 16 16 16 16 16
21 20 21 23 23 23 23 21 19 21 20 18 19 20 21 20 19 19 20 20 20 20 21 21 20 20 20 19 19 19 19 18 18 17 17 17 16 16 16 16 16 16 16 15
21 20 21 22 23 23 23 21 19 17 17 17 19 21 20 19 19 20 20 20 20 21 20 20 20 20 20 19 19 19 19 18 18 17 17 16 16 16 16 16 16 15 15 15
21 19 21 22 22 22 23 22 19 19 18 18 19 20 20 20 19 19 20 20 20 20 20 20 20 20 19 19 19 19 18 18 18 17 17 16 16 16 16 16 15 15 15 15
20 20 21 21 22 22 23 23 21 21 20 20 20 19 20 19 19 19 20 20 20 20 20 20 20 20 19 19 19 19 18 18 17 17 17 17 16 16 15 15 15 15 15 15
18 20 21 22 22 22 23 23 22 22 21 20 20 20 19 19 19 19 19 20 20 20 20 20 20 19 19 19 19 19 18 18 17 17 17 17 16 16 15 15 15 15 15 14
17 19 20 20 21 22 22 22 22 22 21 20 20 20 19 19 18 19 20 20 20 20 20 20 20 20 19 19 19 19 18 18 17 17 17 16 16 16 15 15 15 15 14 14
17 17 16 18 21 22 21 21 21 21 21 20 20 19 19 19 20 20 21 21 21 21 20 20 20 20 19 19 19 18 18 18 17 17 16 16 16 15 15 15 15 14 14 14
16 16 16 17 19 20 21 22 21 21 21 20 19 19 19 19 19 20 21 21 21 21 21 20 20 20 19 19 18 18 18 17 17 17 16 16 15 15 15 15 14 14 14 14
15 15 16 17 20 20 21 21 21 21 21 20 19 19 19 19 18 19 21 21 21 21 21 20 20 19 19 18 18 18 17 17 17 16 16 16 15 15 15 14 14 14 13 13
18 16 16 17 19 19 20 20 21 21 21 20 20 20 19 19 19 21 21 21 21 21 20 20 19 19 18 18 18 17 17 17 16 16 16 15 15 15 14 14 14 13 13 13
17 17 16 16 18 19 20 20 20 19 20 20 20 20 20 20 21 21 21 21 21 20 20 20 19 18 18 18 17 17 17 17 16 15 15 15 15 14 14 14 13 13 13 13
15 16 15 16 17 18 18 19 20 21 20 21 21 21 21 20 20 20 20 20 20 20 20 19 19 18 18 17 17 17 17 16 15 15 15 15 14 14 14 13 13 13 13 13
15 14 14 15 16 17 18 20 20 21 21 21 21 21 21 20 20 20 20 20 20 19 19 19 18 18 17 17 17 16 16 15 15 15 15 14 14 14 13 13 13 13 13 13
15 15 14 15 16 17 18 19 20 20 21 21 21 20 20 20 20 20 20 20 19 19 19 18 18 18 17 17 16 16 15 15 15 14 14 14 14 14 13 13 13 13 13 13
14 14 15 15 16 15 18 19 19 19 20 20 20 20 20 20 20 19 19 19 19 18 18 17 17 17 17 16 16 16 15 15 15 14 14 14 14 13 13 13 13 13 12 12
Wind_Speed
2 4 2 6 7 4 3 2 2 2 2 4 3 3 4 7 7 7 6 6 6 6 4 3 3 3 2 1 1 1 1 1 2 1 1 0 1 1 1 1 1 2 1 1
5 3 7 3 3 2 2 1 1 2 2 3 2 1 2 5 7 7 7 7 7 5 4 4 3 3 3 3 2 1 1 1 1 1 1 1 1 0 0 1 2 2 2 1
4 6 1 2 2 2 1 3 3 2 2 4 3 3 2 2 2 3 5 6 6 8 8 6 5 4 4 4 4 3 2 2 2 1 1 2 2 2 2 2 2 3 2 2
4 5 0 1 1 3 3 3 4 4 3 1 2 2 5 3 3 4 5 5 7 7 8 7 6 6 5 5 4 3 2 2 1 2 2 3 2 1 0 0 1 2 2 2
5 2 1 2 3 4 3 3 4 4 4 2 3 1 6 1 3 6 6 7 7 8 8 8 8 8 6 5 4 3 2 1 1 2 3 2 1 1 0 1 2 2 2 2
5 2 3 4 1 3 5 6 7 6 5 2 2 1 6 4 6 5 6 7 6 7 8 7 6 6 5 4 4 4 3 2 2 2 2 3 2 1 1 1 2 2 2 2
4 4 2 2 3 3 5 6 5 6 5 4 2 2 7 7 6 6 6 6 6 6 7 6 6 6 5 5 5 4 4 3 2 3 2 2 2 2 2 1 0 1 1 2
1 5 4 1 4 4 2 7 7 4 4 5 3 4 6 5 4 3 3 4 4 5 6 7 6 5 5 5 5 5 5 4 3 3 2 2 2 2 1 1 1 1 1 2
7 5 4 1 1 7 5 3 5 7 2 1 5 5 7 2 3 1 1 2 4 5 5 5 5 5 5 5 5 6 5 4 3 3 2 2 1 1 1 1 1 1 1 1
8 4 4 3 4 4 5 8 6 6 5 2 5 4 4 5 4 1 1 2 2 4 4 4 4 4 4 4 4 4 5 4 3 2 2 2 1 1 1 0 1 1 1 1
6 5 3 3 2 3 3 4 5 5 4 6 3 6 5 7 5 4 4 3 3 4 5 4 4 3 3 3 3 4 4 3 2 2 2 1 1 0 0 0 1 1 1 0
5 6 1 4 3 2 4 6 7 5 3 4 4 7 5 4 4 4 3 2 2 3 3 3 4 3 3 3 3 4 4 3 3 2 2 1 0 0 0 1 2 1 1 1
7 6 3 5 5 2 2 3 4 6 6 5 4 6 3 2 1 2 3 3 3 3 3 3 3 3 3 3 3 3 3 4 3 3 2 1 0 0 1 2 2 1 1 1
6 5 6 8 7 4 2 2 5 6 5 5 7 6 5 2 2 2 3 3 3 3 4 3 3 2 3 3 4 4 3 3 4 4 3 1 0 1 2 2 2 1 1 0
5 5 4 4 3 3 3 3 5 5 7 7 7 7 8 6 6 5 4 3 3 3 3 4 4 3 3 3 3 3 3 3 3 3 3 2 2 1 1 2 2 1 1 1
4 5 3 0 0 2 2 2 4 4 4 4 2 5 5 2 3 3 3 4 4 4 4 4 4 4 4 4 3 3 3 2 3 3 3 2 1 1 1 2 1 1 1 1
3 5 4 2 3 2 3 4 4 3 3 6 6 6 2 2 5 6 6 6 6 6 5 5 5 5 4 4 4 4 4 3 3 2 2 1 1 1 2 1 1 1 1 1
6 5 4 3 3 3 7 3 4 4 2 3 3 3 4 4 3 2 4 6 6 5 5 5 5 4 3 3 4 4 3 3 3 3 2 1 1 1 1 0 0 1 0 0
4 7 5 4 3 4 5 2 4 4 2 2 4 3 2 3 3 2 2 4 6 5 5 4 5 4 4 3 3 4 3 3 3 3 2 2 2 1 1 1 1 1 0 0
6 6 6 5 4 6 7 3 2 4 3 3 4 5 4 5 3 4 3 3 3 3 3 4 4 3 4 3 4 4 3 3 3 3 3 3 2 2 2 2 1 1 1 1
4 4 4 4 4 6 6 3 3 4 7 3 4 6 7 6 6 4 2 2 3 3 3 4 5 4 3 3 4 4 3 4 4 3 2 2 2 2 2 2 1 1 1 1
5 4 4 4 3 6 3 3 5 7 3 3 4 5 5 4 2 2 3 3 3 3 4 5 5 3 2 3 4 4 3 3 2 2 2 2 2 1 1 1 1 1 1 1
4 6 6 6 6 4 3 3 3 3 3 3 4 4 5 4 3 2 2 3 3 4 4 4 5 4 2 2 4 4 4 2 3 2 2 2 1 1 1 1 1 1 1 1
1 2 3 1 4 4 4 3 2 1 2 2 3 3 4 4 3 2 3 3 3 3 4 4 5 4 3 2 3 3 3 3 3 2 2 1 1 1 1 1 1 2 2 2
3 2 2 1 4 4 4 2 2 2 2 2 2 2 3 4 3 3 4 4 4 3 3 4 4 5 4 3 2 2 2 3 3 2 2 2 1 1 1 1 2 3 3 4
3 4 5 5 6 4 4 3 1 1 1 1 2 2 1 3 4 3 3 4 4 4 3 3 3 4 3 3 3 2 3 4 4 3 2 2 2 1 1 1 2 2 3 4
Wind_Direction
58 76 223 231 210 202 182 186 254 268 193 141 170 192 196 178 184 194 195 190 196 207 205 186 175 159 149 145 145 157 150 124 107 93 94 157 291 323 358 11 20 7 352 11
30 284 242 224 186 163 154 183 282 356 75 116 124 266 240 194 200 202 198 199 202 199 189 185 175 168 173 184 188 181 187 158 143 151 190 176 168 184 318 353 22 20 11 1
209 249 225 121 136 153 214 196 202 178 61 54 71 347 287 243 213 220 211 201 200 198 194 193 189 188 186 197 198 198 201 192 183 158 113 98 76 50 29 16 12 8 10 5
250 266 287 31 248 159 260 239 171 141 102 358 67 285 283 255 254 233 229 212 209 199 190 193 193 194 198 205 196 188 184 183 171 140 123 131 125 127 234 328 4 359 13 9
262 262 179 239 238 177 194 64 95 105 112 55 23 122 286 313 263 249 238 223 213 199 191 195 198 198 198 193 186 184 173 175 160 147 149 134 119 150 86 54 35 15 5 8
250 260 201 208 218 137 128 73 59 54 70 22 292 180 276 243 231 243 235 227 208 195 192 196 193 184 183 180 178 168 167 189 177 160 153 153 155 143 89 41 18 3 355 355
326 326 302 151 78 37 83 84 34 8 11 266 277 213 254 259 238 223 228 224 205 191 185 185 185 179 180 181 180 172 173 194 194 171 170 180 182 172 172 191 287 341 341 334
172 293 282 214 169 169 150 135 153 193 228 276 318 249 261 275 271 235 215 202 184 179 182 183 185 181 184 186 181 176 181 194 188 182 193 193 186 185 206 215 227 249 263 284
177 244 285 266 174 136 133 132 148 130 134 318 293 293 305 319 6 37 125 156 170 173 172 176 174 173 177 183 184 181 180 186 186 187 183 182 189 191 219 236 236 257 274 315
158 199 289 303 73 41 126 139 102 117 146 240 295 288 262 276 283 278 177 170 184 168 162 167 172 170 175 182 180 169 170 181 181 166 171 166 176 193 215 219 282 293 313 348
144 156 300 22 127 184 99 90 104 112 146 157 241 271 235 230 230 221 215 196 183 174 171 171 168 163 165 155 149 158 162 158 152 151 157 150 157 171 151 243 292 307 312 315
144 126 205 268 271 210 156 157 147 152 198 167 178 263 292 222 211 194 199 194 162 158 159 159 153 142 141 152 154 157 157 151 154 147 142 162 198 351 355 313 308 310 288 287
137 117 91 341 338 2 88 128 132 123 118 149 173 261 335 48 112 174 176 174 153 142 133 129 134 143 154 160 152 149 151 149 138 127 125 112 31 344 302 297 305 316 293 316
119 112 158 193 215 207 204 161 148 128 144 188 215 243 291 283 216 205 190 178 155 159 162 156 157 160 166 165 158 155 156 148 138 129 131 143 253 283 282 286 298 302 267 286
106 132 173 206 216 183 208 200 170 175 181 183 221 219 244 236 213 204 183 165 153 176 181 181 179 181 174 163 159 156 159 156 149 146 165 209 228 243 280 291 294 301 330 347
80 128 126 45 11 192 233 245 184 185 173 193 203 244 249 229 158 165 179 172 188 209 206 196 187 182 183 183 174 162 165 164 151 167 194 211 220 231 250 260 273 322 350 345
96 119 116 224 297 61 265 242 194 192 191 170 199 230 202 168 196 197 194 190 203 217 212 202 196 192 193 192 179 177 178 163 155 177 205 208 203 225 252 258 286 306 323 23
127 111 122 132 92 215 248 267 183 168 204 211 219 214 190 199 205 198 180 186 205 209 207 202 193 190 191 182 175 173 165 161 166 179 200 206 202 220 238 226 262 286 326 38
131 130 118 125 163 261 289 257 170 163 248 224 198 195 148 115 73 354 208 187 200 200 197 191 183 179 168 165 167 154 157 160 168 190 199 204 192 192 187 204 251 254 184 251
64 89 112 124 149 217 239 265 182 120 272 249 180 172 158 122 128 249 222 177 183 171 161 162 152 137 141 159 155 150 168 174 201 214 214 203 180 179 198 218 238 235 204 233
56 59 109 145 188 250 254 272 118 160 240 226 178 171 164 178 198 213 183 165 161 148 144 141 136 143 162 158 148 157 179 209 220 207 193 187 184 191 198 205 225 220 220 247
161 145 163 145 172 248 276 129 175 214 219 170 173 175 172 185 187 173 168 160 139 125 125 134 135 142 152 156 157 172 206 221 189 171 178 191 201 218 208 200 258 261 202 189
182 183 179 184 208 250 279 235 253 185 180 183 170 180 168 162 171 170 161 146 141 139 137 139 140 139 147 164 167 189 221 192 163 163 184 197 202 216 200 207 232 269 225 212
259 131 131 254 279 296 313 312 331 198 185 177 156 156 154 164 165 158 161 159 156 150 152 149 139 149 179 200 201 205 196 171 161 179 202 197 192 257 282 237 219 217 227 229
221 132 111 275 285 325 335 340 349 13 63 92 92 116 149 155 163 175 181 178 168 161 164 160 168 180 198 207 212 198 171 157 169 192 212 227 221 223 237 254 240 228 231 221
209 175 169 219 224 204 248 269 333 73 81 112 108 90 113 162 173 172 182 179 168 168 163 167 179 183 192 198 212 208 181 171 172 197 218 226 229 228 226 242 305 290 247 246
Height
1495 1501 1506 1503 1501 1501 1504 1509 1512 1508 1502 1506 1510 1511 1509 1509 1510 1511 1512 1513 1514 1516 1518 1520 1521 1522 1523 1523 1523 1523 1523 1523 1522 1522 1522 1521 1521 1521 1520 1520 1520 1520 1519 1519
1500 1503 1495 1494 1496 1499 1503 1510 1511 1507 1502 1506 1511 1512 1509 1508 1508 1509 1510 1511 1513 1515 1517 1518 1519 1520 1521 1522 1523 1523 1523 1522 1522 1521 1521 1520 1520 1520 1520 1520 1519 1519 1519 1518
1501 1496 1491 1493 1497 1501 1504 1508 1508 1509 1507 1508 1512 1517 1512 1508 1509 1510 1510 1510 1511 1513 1514 1516 1518 1519 1520 1521 1522 1522 1522 1522 1522 1521 1520 1520 1520 1519 1519 1519 1519 1519 1518 1518
1496 1491 1491 1494 1497 1498 1507 1498 1500 1505 1515 1523 1519 1532 1516 1510 1509 1508 1507 1508 1508 1510 1512 1514 1516 1517 1519 1520 1521 1521 1521 1521 1521 1521 1520 1520 1519 1519 1519 1519 1519 1518 1518 1517
1496 1491 1492 1495 1494 1494 1499 1496 1500 1507 1516 1525 1524 1531 1523 1512 1512 1507 1505 1505 1506 1508 1510 1512 1514 1515 1517 1518 1519 1520 1521 1521 1521 1521 1521 1520 1520 1519 1519 1519 1518 1518 1517 1516
1492 1488 1489 1490 1489 1490 1494 1500 1507 1516 1523 1536 1529 1532 1527 1515 1508 1504 1502 1502 1503 1505 1508 1510 1512 1514 1515 1517 1518 1519 1520 1520 1521 1520 1520 1520 1520 1520 1519 1518 1518 1517 1517 1516
1497 1491 1487 1487 1492 1493 1497 1513 1533 1536 1544 1541 1527 1530 1524 1505 1500 1499 1499 1499 1501 1502 1505 1508 1510 1512 1513 1515 1516 1518 1519 1519 1520 1520 1519 1519 1519 1519 1519 1518 1518 1517 1516 1515
1507 1508 1491 1487 1491 1497 1500 1510 1533 1543 1547 1541 1529 1530 1514 1500 1497 1496 1497 1498 1499 1501 1503 1505 1508 1510 1512 1514 1515 1516 1517 1518 1519 1519 1518 1519 1519 1519 1518 1518 1517 1516 1515 1515
1506 1506 1488 1486 1486 1491 1502 1511 1512 1530 1537 1542 1535 1523 1508 1498 1496 1496 1496 1497 1498 1500 1502 1505 1507 1509 1511 1512 1514 1515 1516 1517 1518 1518 1518 1518 1518 1518 1518 1517 1517 1516 1515 1514
1492 1502 1492 1487 1486 1491 1494 1504 1518 1531 1544 1546 1535 1528 1520 1504 1500 1498 1497 1497 1498 1500 1502 1504 1506 1508 1510 1512 1513 1514 1515 1516 1517 1517 1518 1518 1518 1517 1517 1517 1516 1515 1514 1513
1487 1500 1499 1493 1496 1498 1501 1507 1517 1529 1531 1543 1544 1531 1502 1500 1497 1497 1497 1497 1498 1499 1501 1503 1505 1507 1509 1511 1512 1513 1514 1515 1516 1517 1517 1517 1517 1517 1516 1516 1515 1514 1514 1512
1487 1499 1508 1500 1491 1490 1492 1501 1511 1522 1530 1535 1538 1527 1494 1494 1494 1495 1496 1497 1499 1500 1502 1503 1505 1506 1508 1510 1511 1512 1513 1515 1515 1516 1516 1517 1516 1516 1515 1515 1514 1514 1513 1512
1485 1499 1514 1512 1505 1496 1496 1499 1505 1514 1526 1535 1535 1521 1495 1494 1494 1495 1496 1497 1499 1500 1502 1503 1504 1506 1507 1509 1510 1511 1513 1514 1514 1515 1515 1515 1515 1515 1514 1514 1513 1513 1512 1511
1478 1496 1507 1515 1509 1499 1498 1498 1503 1509 1522 1527 1522 1512 1499 1496 1495 1495 1496 1497 1498 1500 1501 1502 1504 1505 1507 1508 1509 1510 1512 1512 1513 1513 1514 1513 1514 1513 1513 1513 1512 1511 1511 1510
1479 1494 1495 1495 1493 1493 1493 1494 1498 1502 1506 1512 1508 1506 1498 1494 1493 1494 1495 1496 1498 1499 1500 1501 1503 1504 1506 1507 1508 1509 1510 1511 1511 1511 1512 1512 1512 1512 1512 1511 1511 1510 1509 1508
1482 1492 1494 1495 1492 1493 1494 1492 1493 1495 1498 1500 1500 1500 1491 1491 1492 1493 1494 1495 1496 1498 1499 1500 1502 1503 1505 1506 1507 1508 1508 1509 1510 1510 1510 1510 1510 1510 1510 1510 1509 1508 1508 1507
1487 1492 1501 1505 1498 1494 1502 1493 1492 1493 1492 1494 1499 1494 1489 1490 1491 1491 1492 1494 1495 1496 1497 1499 1500 1502 1503 1505 1506 1507 1508 1509 1509 1510 1510 1510 1509 1509 1509 1509 1508 1507 1507 1506
1486 1495 1505 1509 1504 1512 1499 1485 1485 1488 1489 1488 1488 1487 1487 1488 1489 1490 1491 1493 1494 1495 1496 1498 1499 1501 1502 1504 1505 1506 1507 1507 1508 1508 1508 1508 1508 1508 1507 1507 1507 1506 1505 1505
1482 1491 1505 1513 1513 1506 1493 1485 1485 1489 1490 1486 1486 1486 1487 1488 1490 1491 1491 1492 1493 1495 1496 1497 1498 1500 1501 1503 1504 1505 1505 1505 1506 1506 1506 1506 1506 1506 1505 1505 1505 1504 1504 1503
1485 1488 1501 1510 1510 1512 1494 1482 1481 1486 1493 1484 1483 1484 1487 1488 1494 1492 1490 1492 1493 1494 1495 1496 1497 1499 1500 1501 1502 1503 1503 1504 1504 1504 1505 1505 1505 1504 1504 1503 1503 1502 1502 1501
1492 1496 1502 1507 1507 1501 1485 1480 1482 1496 1492 1481 1481 1482 1484 1486 1488 1488 1489 1490 1491 1492 1494 1495 1496 1497 1499 1500 1501 1501 1502 1502 1503 1503 1503 1503 1503 1503 1502 1502 1501 1500 1499 1499
1493 1498 1503 1507 1506 1501 1481 1480 1485 1484 1478 1478 1480 1481 1483 1484 1485 1486 1487 1488 1490 1491 1492 1493 1495 1496 1498 1499 1499 1500 1500 1501 1501 1501 1501 1501 1501 1501 1500 1500 1499 1498 1497 1497
1490 1490 1492 1494 1494 1483 1480 1479 1478 1478 1478 1478 1479 1481 1482 1483 1484 1485 1486 1487 1489 1490 1491 1492 1493 1495 1496 1497 1498 1498 1499 1499 1499 1499 1499 1499 1499 1498 1498 1498 1497 1496 1495 1495
1485 1485 1487 1488 1483 1480 1479 1478 1477 1478 1478 1478 1479 1480 1482 1482 1483 1485 1486 1487 1488 1489 1490 1491 1492 1493 1494 1495 1496 1496 1497 1497 1497 1497 1497 1497 1497 1496 1496 1496 1495 1494 1493 1492
1483 1484 1486 1487 1482 1480 1478 1477 1478 1478 1478 1479 1480 1480 1482 1482 1483 1484 1484 1485 1486 1487 1488 1489 1490 1491 1492 1493 1494 1494 1495 1495 1495 1495 1495 1495 1495 1494 1494 1494 1493 1492 1491 1490
1481 1482 1485 1485 1480 1480 1478 1477 1478 1478 1479 1480 1480 1481 1482 1482 1483 1483 1483 1484 1485 1486 1487 1488 1489 1490 1491 1491 1492 1492 1492 1493 1493 1493 1493 1493 1493 1493 1492 1491 1491 1490 1489 1488